Location: Góry Miechowskie
(50.3599°N, 20.1803°E)
Time: 07:00:26
(UTC+00:00)

A-11 Canister half - Pass Details

Date: 21 September 2024
Orbit: 1515 x 1684 km, 47.2° (Epoch: 05 October)

Event Time Altitude Azimuth Distance (km) Brightness Sun altitude
Rises 14:07:35 0° 196° (SSW) 4,790 12.3 22.4°
Reaches altitude 10° 14:11:27 10° 183° (S) 3,780 11.6 21.9°
Maximum altitude 14:18:36 25° 134° (SE) 2,763 10.3 20.8°
Drops below altitude 10° 14:25:36 10° 85° (E) 3,705 10.5 19.8°
Sets 14:29:18 0° 73° (ENE) 4,676 10.9 19.3°
